Regional Weather Roundup
Issued by NWS

Home | Current Version | Previous Version | Text Only | Print | Product List | Glossary Off
Versions: 1 2 3 4 5 6 7 8 9 10 11 12 13 14 15 16 17 18 19 20 21 22 23 24 25 26 27 28 29 30 31 32 33 34 35 36 37 38 39 40 41 42 43 44 45 46 47 48 49

000
ASUS45 KBOI 030910
RWRID

IDAHO REGIONAL WEATHER ROUNDUP
NATIONAL WEATHER SERVICE BOISE ID
300 AM MDT MON AUG 03 2015

NOTE: "FAIR" INDICATES FEW OR NO CLOUDS BELOW 12000 FEET
WITH NO SIGNIFICANT WEATHER AND/OR OBSTRUCTIONS TO VISIBILITY

IDZ012-014-031000-
SOUTHWEST IDAHO


CITY           SKY/WX    TMP DP  RH WIND       PRES   REMARKS
BOISE          MOCLDY    80  48  32 N3        29.84R
CALDWELL       PTCLDY    81  48  32 W12       29.82R
MOUNTAIN HOME  CLOUDY    80  47  31 NW6       29.83R
$$

IDZ016-017-031000-
SOUTHCENTRAL IDAHO


CITY           SKY/WX    TMP DP  RH WIND       PRES   REMARKS
BURLEY         CLOUDY    76  42  29 W15       29.88S
JEROME         CLOUDY    71  45  39 SE8       29.91R
TWIN FALLS     CLOUDY    80  41  24 S16G23    29.90R
$$

IDZ019>023-031000-
SOUTHEAST IDAHO


CITY           SKY/WX    TMP DP  RH WIND       PRES   REMARKS
IDAHO FALLS    MOCLDY    55  46  71 CALM      29.96F
POCATELLO      CLEAR     77  43  29 VRB7      29.93F
REXBURG        MOCLDY    62  44  51 CALM      29.97S
$$

IDZ006-010-011-018-031-032-031000-
CENTRAL IDAHO MOUNTAINS


CITY           SKY/WX    TMP DP  RH WIND       PRES   REMARKS
MCCALL         MOCLDY    73  29  19 N5        29.94F
HAILEY         MOCLDY    63  41  45 NW10      30.00F
STANLEY          N/A     51  35  54 S5        30.11F
SALMON         PTCLDY    55  43  62 CALM      29.92S
CHALLIS        PTCLDY    61  39  44 N5        29.98S
$$

IDZ002-004-006-007-026-031000-
NORTHERN IDAHO


CITY           SKY/WX    TMP DP  RH WIND       PRES   REMARKS
LEWISTON       PTCLDY    77  29  17 CALM      29.76S
LOWELL           N/A     63  50  62 N3        29.84R
COEUR D`ALENE  CLEAR     64  43  45 NE5       29.82S
MULLAN PASS    PTCLDY    71  20  14 SE3       30.09F
$$


USA.gov is the U.S. government's official web portal to all federal, state and local government web resources and services.